Weather in Vashkovcy

Ukraine / Chernovtci District     48°24′20″N   27°07′36″E
temp.,
°C
wind,
m/s
gust,
m/s
humid.,
%
clouds,
%
prec.,
mm/h
press.,
hPa
HPBL,
m
28 september, tue
tue2800:00+8e39710 0.0 1023173
03:00+7e34760 0.0 102457
06:00+6e33800 0.0 102442
09:00+9e46650 0.0 1024274
12:00+14ese45472 0.0 10241272
15:00+16e344110 0.0 10241724
18:00+15e354639 0.0 1024189
21:00+12ene485187 0.0 1026196
29 september, wed
wed2900:00+9ene376034 0.0 1027133
03:00+8ene48709 0.0 1028137
06:00+7e367418 0.0 102895
09:00+11e48605 0.0 1028307
12:00+15ese664674 0.0 10281763
15:00+15ese564486 0.0 10281753
18:00+14ese46465 0.0 1027332
21:00+10e37590 0.0 1029120
30 september, thu
thu3000:00+9ese613611 0.0 1030353
03:00+7ese512701 0.0 1030315
06:00+5ese36795 0.0 1031122
09:00+9ese48625 0.0 1031335
12:00+14se56455 0.0 10301036
15:00+16se55390 0.0 10291338
18:00+15se46425 0.0 1028198
21:00+10ese335544 0.0 103034
1 october, fri
fri100:00+8ese365539 0.0 103194
03:00+7se3652100 0.0 1031108
06:00+6ese3555100 0.0 103172
09:00+9se3746100 0.0 1032251
12:00+14se6733100 0.0 1031943
15:00+16se5627100 0.0 10301270
18:00+14se3633100 0.0 1029135
21:00+11se3640100 0.0 102986
2 october, sat
sat200:00+9se4842100 0.0 1029172
03:00+8se374899 0.0 1029141
06:00+7se375297 0.0 1028141
09:00+9se51045100 0.0 1028376
12:00+14sse7944100 0.0 10271080
15:00+16se7826100 0.0 10251302
18:00+15se51028100 0.0 1025365
21:00+10se4837100 0.0 1025144